Terminal Aerodrome Forecast
Issued by NWS

Current Version | Previous Version | Text Only | Print | Product List | Glossary On
Versions: 1 2 3 4 5 6 7 8 9 10 11 12 13 14 15 16 17 18 19 20 21 22 23 24 25 26 27 28 29 30 31 32
512 FTUS41 KOKX 222335 TAFGON TAF KGON 222335Z 2300/2324 18004KT P6SM BKN250 FM230300 VRB03KT 6SM BR BKN250 FM230800 VRB02KT 2SM BR SCT005 BKN250 FM231100 VRB02KT 1/2SM FG BKN004 TEMPO 2311/2313 1/4SM FG OVC002 FM231500 21006KT 5SM BR OVC010 FM231800 22006KT P6SM BKN010 OVC020=

USA.gov is the U.S. government's official web portal to all federal, state and local government web resources and services.